Theta_e
323 323 323 323 323 323 323 323 324 323 323 322 323 322 321 320 320 320 320 320 319 320 320 321 321 321 321 320 320 320 320 320 321 322 321 320 320 320 320 320 318 318 318 317 317 316 314 313 313 314 317 315 315 315 314 313 314 314 313 311 311 314 312 310 306 305 306 308 306 304 306 308 304 305 305 308 309 308 308 310 310 309 309 310 309
323 322 323 324 324 324 324 324 323 323 324 324 323 323 323 322 322 321 321 320 322 321 319 322 322 322 321 321 320 320 320 320 321 321 320 320 320 320 320 319 319 318 319 317 317 317 317 313 312 314 314 313 314 310 311 311 310 309 309 309 307 309 312 307 306 304 303 306 304 306 305 308 304 305 307 307 307 308 306 307 307 306 307 308 308
323 324 324 324 324 325 324 323 323 324 324 324 323 322 323 323 322 323 322 322 322 322 321 323 322 322 321 321 321 321 321 321 323 322 322 320 319 319 320 319 318 318 318 318 316 317 316 315 314 315 315 314 314 313 314 311 311 309 309 308 308 309 309 309 308 306 305 304 306 304 305 305 305 303 304 306 306 306 305 306 305 305 306 307 306
322 323 324 325 325 325 324 324 324 324 324 325 324 324 324 324 324 324 323 323 322 324 324 323 322 322 321 321 321 321 321 321 322 322 320 320 320 319 319 319 319 318 318 317 317 317 317 316 315 315 315 314 313 312 312 313 312 310 309 308 309 308 310 311 312 309 307 305 304 304 305 306 304 304 304 305 305 305 305 306 306 305 305 305 305
321 322 323 324 325 324 324 323 324 324 325 325 325 325 326 326 326 323 323 323 323 324 325 324 323 322 322 320 320 320 321 321 321 321 323 323 321 320 320 319 320 319 320 319 318 317 317 317 316 315 315 314 314 312 312 312 310 311 309 307 307 308 309 309 310 310 309 308 305 305 306 305 304 305 304 304 305 305 305 305 304 305 307 307 306
322 322 323 323 323 324 324 324 322 321 322 324 325 326 326 325 324 324 324 323 323 324 324 323 324 323 322 321 322 322 320 319 319 319 320 322 323 322 321 320 319 318 319 318 318 318 318 318 318 317 315 314 314 314 313 312 310 311 309 306 306 308 309 309 310 312 311 309 308 305 306 305 305 305 304 305 305 305 305 306 306 306 306 306 306
322 322 323 323 323 323 322 321 321 321 322 325 326 325 325 326 325 324 324 324 324 324 323 323 323 323 321 322 322 322 321 320 320 321 322 322 323 322 322 321 320 320 319 319 319 318 319 318 319 319 317 316 315 314 314 313 312 311 310 309 307 308 308 308 308 310 310 309 308 308 306 305 307 305 304 305 304 304 303 304 304 305 306 305 304
321 321 321 322 321 320 320 320 320 322 323 324 324 325 325 326 326 326 325 325 325 323 323 323 324 323 322 321 322 322 322 321 321 322 322 323 322 322 321 320 320 321 321 320 320 319 319 319 318 319 319 318 317 317 316 314 312 312 311 309 308 308 307 306 308 309 309 309 308 307 306 305 305 305 305 305 305 305 303 302 302 303 304 305 306
320 320 321 321 320 320 320 320 322 322 323 323 324 324 324 324 324 323 323 324 324 324 323 323 323 323 322 322 322 322 322 321 321 322 322 322 322 322 322 321 321 320 320 320 320 319 319 319 319 319 319 317 310 311 311 311 313 311 310 309 307 306 306 306 307 308 308 309 307 307 306 305 305 304 304 303 302 301 303 303 303 304 303 303 305
319 319 320 320 320 320 319 320 321 322 321 321 322 321 321 322 322 322 322 322 322 321 321 322 321 321 321 321 322 322 321 322 316 307 306 318 322 322 322 322 322 321 320 320 319 319 318 319 320 316 311 309 305 301 300 300 304 310 312 309 307 307 307 306 306 308 309 308 307 306 305 305 303 304 303 303 303 304 303 303 301 301 302 302 304
318 319 319 320 320 320 319 319 320 320 321 321 322 320 320 321 321 321 321 320 320 320 321 320 321 321 321 321 321 321 321 318 297 296 296 297 313 320 321 321 322 321 321 321 320 320 319 318 319 317 313 309 310 300 299 298 297 296 298 302 304 308 307 306 306 307 305 306 305 304 302 302 303 304 304 303 304 302 301 301 301 301 299 298 297
312 312 313 315 319 320 319 318 318 318 319 319 319 318 318 318 318 318 318 316 316 317 318 318 318 318 319 319 320 320 319 296 293 293 294 294 298 314 318 320 321 321 321 321 321 321 320 321 322 321 320 318 316 313 305 298 296 295 294 295 295 294 298 306 304 301 303 303 302 302 301 302 303 303 304 303 303 302 302 301 301 299 298 297 297
307 308 310 313 315 316 316 318 318 317 317 316 316 316 316 316 315 315 315 315 316 317 315 315 316 316 316 316 318 316 317 293 291 291 292 293 293 300 314 316 317 319 320 320 321 321 321 320 321 321 320 313 313 316 316 309 295 294 294 293 292 292 291 291 294 307 306 305 304 302 302 303 302 303 303 302 301 300 301 300 300 299 298 297 297
307 307 307 308 309 311 312 312 312 313 314 315 316 316 317 317 316 316 314 314 316 315 314 315 313 315 315 317 315 314 314 295 290 290 291 290 290 295 313 313 315 315 316 317 319 320 320 320 320 320 319 318 317 315 314 311 305 303 303 305 303 299 294 292 292 293 301 306 304 303 304 302 301 302 301 300 299 299 298 298 299 297 297 296 298
306 307 307 307 309 309 310 310 310 311 312 312 313 313 313 313 314 315 316 317 318 317 316 315 314 314 313 314 316 316 313 292 292 291 291 291 290 297 311 311 311 312 313 313 315 316 318 318 318 317 316 315 314 311 312 310 307 306 305 305 305 304 304 304 304 304 303 303 303 303 302 302 301 300 301 301 301 300 299 298 298 297 297 298 298
306 307 306 306 307 308 310 310 310 310 310 310 310 310 312 313 313 312 312 312 312 312 311 314 314 314 312 314 316 315 311 291 291 291 291 292 295 311 312 313 313 313 311 311 311 312 313 314 315 313 312 311 299 295 302 309 307 306 305 304 303 302 300 294 292 294 300 302 302 301 300 300 295 299 299 299 300 299 298 298 299 298 296 295 294
306 307 306 306 307 307 307 307 307 307 309 309 309 310 310 310 310 311 312 312 312 312 312 311 310 312 313 314 315 314 314 298 291 291 292 292 303 315 314 312 311 309 308 309 310 310 310 311 312 310 309 306 294 293 295 301 307 306 305 304 303 303 301 298 293 291 290 290 289 289 289 289 290 290 290 289 295 297 297 295 295 297 294 292 293
307 308 307 308 308 309 309 309 307 306 307 308 309 310 311 312 312 313 312 312 311 311 310 309 308 308 310 311 309 312 312 300 291 292 293 292 304 315 313 312 309 308 306 306 307 306 303 300 305 308 306 302 291 292 294 303 307 305 304 303 302 300 297 296 296 293 290 290 289 289 289 289 289 288 289 290 289 293 296 293 295 294 293 293 291
307 306 308 308 309 308 307 307 306 307 306 307 309 309 311 311 311 312 314 314 312 310 309 310 308 307 306 306 298 306 310 303 292 291 292 293 306 315 312 311 309 307 306 304 304 304 302 297 295 298 299 294 289 290 293 302 306 305 304 303 300 298 295 295 294 294 295 295 296 297 295 293 296 298 297 290 290 292 297 296 295 294 292 292 292
305 306 308 308 307 307 308 308 309 309 309 310 310 311 310 309 310 311 310 310 310 309 308 309 309 307 304 305 305 306 308 309 300 289 292 293 294 312 312 311 308 306 306 305 304 303 302 300 295 289 289 289 289 289 290 293 301 301 301 300 298 294 295 295 294 295 295 295 296 296 296 296 297 297 297 297 297 297 297 297 296 295 293 292 292
301 302 304 305 307 307 307 308 310 310 310 309 309 309 309 310 309 308 308 306 307 306 306 306 305 303 302 303 305 305 305 307 304 290 291 293 293 298 312 311 309 307 305 304 304 302 301 299 298 290 288 289 289 289 289 290 292 298 298 296 294 293 293 294 293 291 295 294 295 295 296 296 296 297 296 296 296 296 296 296 296 296 294 292 291
301 301 302 303 305 307 308 308 310 311 309 309 308 307 306 305 304 303 302 303 304 304 303 304 305 303 302 302 304 304 300 296 305 294 290 291 292 292 307 310 308 307 305 304 302 302 300 299 298 291 288 288 288 289 289 290 290 296 293 288 287 288 294 294 295 295 295 295 295 294 295 294 294 295 295 295 295 295 295 296 296 296 296 295 292
301 300 301 301 303 305 307 309 308 308 309 309 308 307 304 304 304 305 306 306 307 306 307 306 307 306 305 303 302 302 301 299 291 299 290 290 290 291 292 300 293 307 306 303 302 300 300 298 295 289 288 288 288 289 289 289 291 292 287 287 288 288 292 295 294 295 294 294 294 293 293 294 294 293 293 294 294 295 295 295 295 295 295 295 294
301 301 302 302 302 303 304 306 308 308 308 308 308 309 306 306 306 307 308 308 308 307 306 306 307 307 306 304 303 301 300 301 294 290 294 289 290 290 290 291 293 305 305 303 301 300 300 298 294 288 288 288 287 288 288 289 290 287 287 287 288 290 294 294 294 293 292 291 292 293 293 293 293 293 293 294 293 294 293 293 293 294 294 294 294
300 300 301 302 303 303 304 304 306 307 307 307 307 307 308 307 306 306 307 309 308 306 306 306 306 306 306 306 304 301 300 299 301 293 289 289 289 289 289 289 290 292 301 301 300 298 291 288 287 288 287 287 287 288 288 287 286 286 286 288 291 294 293 292 292 292 291 290 291 292 292 292 292 292 293 293 293 293 293 293 293 293 292 292 291
299 299 300 301 301 301 302 303 304 305 306 305 307 308 307 306 306 306 306 307 307 306 306 304 304 305 305 305 303 301 299 299 300 299 294 293 291 289 289 289 291 291 294 294 289 288 288 287 287 288 289 291 294 294 293 291 287 287 287 289 294 292 292 292 292 291 291 291 290 290 290 291 291 292 292 291 290 290 290 290 289 289 290 289 288
298 299 300 300 301 302 302 302 303 304 304 304 304 305 305 306 307 304 305 306 306 306 305 304 303 303 303 304 303 299 299 299 299 299 299 299 298 295 295 293 290 291 294 293 291 292 291 292 291 289 288 286 288 288 289 289 291 292 293 292 292 292 292 291 291 290 290 290 289 289 290 290 290 289 290 289 289 289 290 288 288 288 289 288 287
297 298 299 300 300 301 301 295 297 303 303 303 303 302 302 304 305 305 304 305 304 304 304 303 302 303 303 304 302 300 298 298 299 299 299 299 299 299 299 297 298 298 296 296 296 294 292 288 290 293 293 293 293 294 293 293 290 288 292 292 292 291 290 289 290 292 291 289 288 288 288 288 287 288 288 288 288 289 290 289 288 288 288 288 286
297 298 299 299 300 300 301 302 302 302 303 301 300 300 302 303 304 305 303 305 306 305 304 304 303 305 303 303 302 301 300 299 300 295 299 294 297 299 299 298 298 297 294 291 294 294 294 294 292 292 292 289 290 290 291 291 290 291 292 292 292 292 292 292 291 290 290 289 288 287 287 287 287 288 288 288 289 289 290 289 289 288 288 288 286
296 298 299 299 300 300 301 301 302 301 302 302 302 301 287 287 294 301 303 291 288 288 291 301 304 304 303 304 304 302 301 303 292 289 289 289 290 291 292 291 291 293 289 288 292 293 291 291 291 290 290 290 290 289 289 289 289 289 289 288 290 291 290 291 291 290 289 288 288 287 287 287 287 288 288 287 288 289 289 288 288 288 287 286 286
295 297 298 298 298 299 300 300 302 301 301 301 301 300 301 296 286 286 289 290 289 288 288 288 288 290 298 303 301 291 288 288 287 289 288 288 288 288 288 288 288 287 287 290 291 291 290 290 289 289 289 289 289 288 288 288 288 288 289 289 290 289 288 290 290 289 289 288 288 288 287 287 287 287 286 286 287 288 288 289 289 288 287 286 285
293 295 298 299 298 295 299 299 299 300 300 299 299 299 299 299 300 289 286 288 288 287 288 287 288 288 288 292 297 301 289 287 288 288 288 288 287 287 287 287 286 287 287 289 291 291 291 290 289 289 289 288 288 288 288 288 288 288 288 288 288 289 289 289 289 290 289 289 288 288 287 287 287 287 287 287 286 287 287 287 287 287 286 286 286
293 295 296 297 296 292 297 299 299 299 299 298 298 297 297 296 296 298 296 287 287 288 288 288 288 288 288 288 289 292 293 290 288 288 288 288 287 287 287 286 286 286 287 290 291 290 290 289 289 289 289 288 288 288 288 289 288 287 288 287 287 288 289 291 289 291 289 289 288 288 287 287 287 287 287 287 286 286 287 286 287 286 286 286 286
294 295 296 297 297 298 298 298 298 297 297 297 297 297 296 296 296 296 295 296 296 291 288 287 287 287 288 288 289 289 289 288 288 288 287 287 287 286 287 287 286 287 289 290 290 289 290 289 289 289 289 288 289 288 288 288 288 288 288 288 289 290 290 292 291 290 289 289 289 288 288 288 287 286 286 287 287 287 286 286 286 286 285 286 285
294 291 285 287 297 297 297 297 297 297 296 296 295 295 295 295 294 293 294 294 294 294 296 295 290 287 291 291 289 289 288 288 288 288 287 287 286 287 287 288 288 289 291 293 292 291 289 289 288 289 289 288 288 288 288 289 288 288 288 287 288 289 289 289 289 289 289 289 289 288 288 287 287 287 287 286 286 286 286 286 286 286 285 285 285
293 295 296 294 295 295 295 296 295 295 295 295 296 295 294 293 292 293 292 292 292 293 293 294 293 288 287 289 288 288 288 288 288 287 287 286 286 288 289 289 290 290 290 290 291 290 290 289 288 288 290 289 288 289 289 289 289 288 288 287 287 288 288 288 289 289 288 289 288 288 287 288 288 287 287 286 286 286 286 286 286 286 286 286 286
292 293 294 294 295 295 295 295 295 295 291 291 293 294 293 293 292 293 293 292 291 292 293 293 293 292 290 290 288 287 287 287 287 287 286 286 287 289 291 290 290 290 290 290 289 289 288 288 289 290 290 290 290 290 289 289 289 289 287 287 287 287 287 287 288 287 288 288 288 288 287 288 288 287 286 285 286 286 286 286 286 286 286 286 285
290 291 293 294 295 295 295 295 294 288 291 293 293 293 292 292 292 291 291 291 290 290 289 291 290 291 288 288 289 288 287 286 287 286 286 287 288 290 289 290 290 289 289 289 289 289 288 289 290 290 290 290 290 290 289 289 289 288 287 286 286 287 285 287 287 287 287 288 288 288 288 288 288 287 287 286 285 285 286 286 286 286 286 286 286
291 288 287 287 290 294 294 294 292 293 293 292 292 291 290 290 290 290 291 290 290 290 290 290 289 289 288 288 288 288 288 287 287 287 287 288 289 290 289 290 290 290 289 289 288 288 289 289 290 290 289 289 289 290 289 289 288 287 287 286 286 287 287 288 288 288 288 288 288 288 288 288 288 287 287 286 286 286 285 285 286 285 285 285 286
293 294 290 287 292 291 292 290 291 291 290 291 290 290 289 289 289 289 289 289 288 288 288 287 287 286 287 288 287 288 288 288 288 287 287 287 288 289 290 290 289 288 287 287 289 289 289 290 288 289 289 289 289 289 288 288 287 287 287 286 286 286 286 287 287 287 288 287 287 288 288 287 287 287 286 286 286 286 286 286 286 286 286 286 286
295 295 291 290 290 293 291 290 290 289 289 289 288 288 288 288 288 288 288 287 287 286 286 286 286 286 287 287 286 287 288 288 287 288 288 288 288 289 289 289 288 287 287 288 289 289 289 289 289 289 289 289 289 289 288 288 287 287 286 285 286 285 286 286 286 286 286 286 286 286 286 286 286 286 285 286 286 286 286 286 286 287 287 287 287
294 294 293 293 293 291 289 288 288 287 287 286 287 287 286 287 287 287 286 286 286 286 286 286 286 286 286 285 286 286 287 287 287 287 287 288 288 288 288 288 288 289 289 289 289 289 289 288 289 289 289 289 289 288 288 287 286 286 285 285 284 284 284 285 285 284 283 283 284 284 284 284 284 285 285 286 286 286 286 286 287 287 287 287 287
294 294 293 292 292 290 288 288 288 287 287 287 286 286 286 286 287 286 286 286 286 286 286 285 285 286 285 285 286 286 287 287 285 287 286 286 287 286 287 288 289 289 289 289 289 290 289 289 289 290 289 288 287 287 286 286 285 285 284 283 283 282 282 283 283 282 282 281 281 282 282 284 285 285 286 286 286 286 286 286 286 287 287 287 287
294 292 291 291 290 289 288 288 287 287 287 286 286 286 286 286 287 287 286 286 286 286 286 286 286 285 285 286 287 287 287 287 288 287 286 286 286 287 288 288 289 289 288 288 289 289 289 289 289 288 287 287 286 284 284 284 283 283 282 282 282 281 281 281 281 281 280 280 280 281 282 283 284 285 285 286 286 286 286 286 286 286 287 287 287
293 292 291 290 289 289 288 288 288 288 287 287 287 286 286 287 287 287 286 286 286 287 286 286 286 287 287 288 287 287 286 286 286 286 286 287 287 288 288 288 287 287 288 288 287 288 288 288 288 287 286 286 285 284 283 283 282 281 281 280 280 280 280 280 280 280 280 279 280 280 282 283 284 285 286 286 286 286 286 286 286 286 286 287 286
292 291 290 289 288 288 288 289 288 289 288 288 287 287 287 287 287 287 287 287 286 286 285 286 286 286 286 287 287 287 287 288 288 288 287 288 288 288 288 287 287 287 288 288 287 286 287 287 287 286 284 284 282 283 283 282 281 281 281 281 281 281 281 281 281 280 280 280 280 280 281 282 283 285 285 286 287 287 286 286 287 287 287 286 287
291 290 288 287 287 287 287 287 288 288 289 288 287 287 287 287 287 286 286 286 285 286 286 286 286 286 286 286 286 286 287 287 287 287 286 287 287 287 287 287 287 287 286 286 285 286 284 284 284 283 282 282 281 281 282 282 282 282 282 282 282 281 281 280 280 280 281 281 281 280 281 281 283 285 287 287 287 287 286 287 287 287 287 287 287
289 288 287 288 288 288 288 289 288 287 289 288 287 286 286 286 287 286 286 286 286 286 286 286 287 286 286 286 287 287 287 287 287 287 287 287 287 286 286 285 286 286 285 284 284 284 284 283 282 282 282 281 281 281 281 282 282 281 281 282 281 280 279 279 280 280 281 280 280 280 281 282 284 286 287 287 287 287 287 287 287 288 288 288 288
289 288 287 288 288 288 288 288 288 288 288 288 287 286 286 286 286 287 287 287 287 287 287 287 287 287 287 286 286 286 286 287 287 287 287 287 286 286 285 284 283 283 284 283 282 281 282 282 282 282 282 282 282 281 281 281 281 281 281 281 280 279 279 279 279 280 279 280 281 281 282 283 285 287 288 288 288 288 288 287 288 288 288 288 288
289 288 288 288 287 287 287 287 287 287 287 287 286 286 286 286 286 287 287 287 286 286 287 287 287 286 286 286 286 286 286 286 286 286 286 286 286 285 284 283 282 282 282 281 281 282 282 282 282 282 281 282 282 281 282 282 281 281 281 280 279 279 279 279 279 279 279 280 280 281 283 284 286 288 289 289 288 288 288 288 287 288 288 288 288
288 288 287 287 287 287 287 287 287 287 287 287 286 285 285 285 285 286 286 286 285 285 286 286 286 286 286 286 285 286 286 286 286 286 286 285 285 284 284 283 283 282 281 281 282 282 282 282 282 282 282 282 281 281 282 282 281 280 279 279 279 279 279 279 279 279 279 279 281 283 286 287 286 287 288 289 289 288 287 287 288 288 288 288 288
Wind_Speed
5 4 5 6 7 8 7 6 7 6 7 7 6 6 6 7 6 5 5 5 5 5 4 5 5 5 4 4 3 3 3 3 2 2 2 2 2 1 1 1 2 2 2 3 2 1 1 2 3 2 1 2 3 3 3 3 3 4 4 5 6 5 5 6 7 7 4 1 2 3 2 0 4 4 5 4 4 4 4 5 6 5 5 4 6
4 5 5 5 7 7 6 5 5 6 7 7 6 6 7 7 8 8 7 6 5 5 5 5 5 6 6 5 3 2 2 3 3 2 2 2 2 1 1 1 2 1 2 2 3 2 2 2 3 3 1 2 3 4 4 3 4 4 4 4 6 5 4 6 6 5 5 4 3 2 3 1 3 4 4 4 4 3 5 4 5 6 5 5 4
5 5 5 5 6 5 6 6 6 7 7 7 7 7 6 7 7 7 7 7 6 5 6 5 6 6 6 5 4 3 2 1 1 2 2 0 1 1 1 1 2 3 3 3 2 2 3 3 3 3 2 3 3 3 3 3 2 4 4 3 5 4 4 5 5 5 5 4 2 3 2 3 3 4 3 3 3 3 3 4 4 4 4 5 4
6 6 6 5 6 6 6 6 8 7 7 6 8 7 7 7 7 7 7 7 7 5 6 7 7 7 5 5 4 3 2 1 1 0 0 1 0 1 0 2 3 3 4 5 4 3 4 4 4 4 4 4 4 4 3 3 3 4 4 4 4 4 3 3 3 4 4 4 2 1 2 2 2 2 1 2 2 3 3 2 2 4 4 4 4
5 6 6 6 5 5 6 6 5 5 6 6 8 8 7 6 5 6 6 6 6 5 5 5 7 6 5 4 4 3 3 2 2 2 2 2 3 3 2 3 4 5 4 5 5 6 6 6 5 4 4 4 4 4 4 5 4 4 5 4 5 4 3 3 4 5 4 4 4 2 1 2 2 2 3 2 1 1 2 2 2 3 3 2 2
5 5 5 6 6 6 6 7 7 3 4 5 7 7 7 6 6 4 5 6 5 3 3 4 5 5 5 6 5 4 3 2 3 4 6 4 3 3 2 3 3 4 5 5 6 6 7 8 5 5 6 6 5 5 5 7 5 4 4 3 4 4 4 4 3 4 5 4 4 4 2 2 2 2 2 2 2 3 3 2 1 1 3 4 3
4 4 5 5 5 5 6 7 7 7 7 6 5 6 6 6 7 7 6 6 6 4 3 3 2 2 4 4 3 3 3 4 2 3 5 5 5 4 3 4 4 4 5 6 6 7 7 7 7 6 7 8 8 7 6 6 5 6 5 4 3 3 2 2 1 4 4 5 3 2 4 3 0 1 2 1 1 2 4 4 3 2 2 4 5
3 4 4 4 4 5 5 7 7 7 5 5 5 6 6 6 5 5 5 5 4 5 4 4 4 4 4 3 3 2 2 1 2 4 4 5 4 4 4 4 4 4 5 5 5 6 7 7 7 7 8 8 9 7 7 7 5 6 5 4 4 4 3 2 2 2 3 3 2 3 2 2 2 1 1 1 0 0 3 3 5 5 5 4 3
3 3 4 4 5 5 6 6 7 8 7 7 7 6 5 5 5 5 5 4 3 3 3 3 2 2 3 3 3 3 3 2 1 2 4 5 4 5 4 4 4 4 5 5 5 5 6 5 6 6 6 7 7 6 5 4 4 6 5 5 5 5 5 4 4 3 2 3 3 3 2 2 1 1 1 2 3 4 3 3 4 4 6 6 4
3 3 3 4 4 5 6 6 6 6 6 6 6 5 5 5 5 5 5 3 3 3 3 2 1 1 1 2 2 1 1 0 2 2 4 4 5 4 4 4 4 4 4 5 4 2 3 6 6 7 6 8 8 5 5 8 8 7 4 6 7 6 6 5 5 4 3 3 2 1 1 0 1 1 1 0 1 1 2 3 5 5 5 6 5
3 3 3 3 3 4 5 5 4 4 4 4 3 4 5 5 5 4 4 3 3 3 3 3 2 1 1 1 2 2 1 2 7 3 1 2 3 4 4 4 4 4 5 5 5 3 5 7 6 5 5 5 5 10 11 10 10 6 6 7 8 8 7 5 3 2 2 1 2 1 0 0 1 1 1 1 1 2 3 3 4 5 5 7 8
2 1 1 2 3 4 4 4 3 2 1 1 2 3 4 4 4 3 3 4 4 4 4 3 3 3 2 3 3 3 3 5 4 4 2 0 2 3 3 3 3 3 4 4 4 2 3 5 4 2 2 1 2 5 8 10 9 8 8 8 4 2 3 2 3 3 2 2 2 1 1 2 1 2 1 1 2 3 2 4 3 4 6 6 6
3 4 2 2 2 2 3 3 3 2 2 2 3 3 4 5 5 6 5 4 4 5 4 4 4 4 4 4 3 3 2 4 4 4 3 2 1 2 1 3 3 3 3 3 4 4 3 4 4 4 3 1 4 5 5 5 5 7 9 8 6 5 6 7 6 1 3 2 2 3 2 1 2 1 1 1 1 4 4 5 4 5 5 6 6
6 5 5 4 3 3 3 3 3 3 3 3 3 3 3 3 3 3 4 4 4 4 4 5 4 4 3 3 3 3 3 2 0 3 4 3 2 3 0 1 2 3 3 3 3 4 3 4 4 4 4 3 1 1 3 5 7 7 7 5 5 5 7 8 7 6 4 1 0 1 2 1 1 2 2 1 2 4 5 6 6 6 6 7 8
7 6 6 6 5 4 5 5 5 4 4 4 4 4 4 4 4 3 2 3 3 4 4 4 3 3 3 2 3 3 2 2 2 4 6 6 5 3 3 2 2 2 3 3 4 3 3 2 2 3 3 3 2 1 2 5 7 6 6 6 5 5 5 5 5 3 3 3 3 4 3 2 2 2 1 0 2 3 4 6 6 6 7 7 8
8 8 8 7 6 5 5 5 5 5 5 4 5 4 3 3 4 3 3 3 3 3 3 3 3 3 2 2 3 4 3 2 3 6 6 7 6 4 3 3 2 2 2 3 2 2 2 2 1 2 2 2 6 3 1 4 7 8 7 6 6 6 6 6 8 9 7 5 4 3 3 3 4 2 2 2 3 3 4 4 5 6 6 7 8
7 6 7 7 7 6 5 6 5 4 3 4 4 4 4 3 2 2 4 4 4 3 3 2 2 2 3 2 3 3 3 4 6 5 6 6 4 3 3 3 3 3 3 3 3 4 4 3 3 3 4 5 6 7 5 2 5 6 6 6 5 4 5 4 7 8 8 8 8 7 6 4 2 2 1 2 4 4 4 5 5 4 6 8 8
3 4 4 3 4 5 6 7 7 5 4 4 4 3 3 3 4 3 6 6 5 4 4 3 2 2 2 3 3 2 2 4 6 6 3 3 1 3 2 3 4 4 3 3 3 5 8 11 6 5 6 6 7 8 4 2 4 5 5 5 4 3 3 2 2 3 5 5 4 4 3 4 2 2 3 3 4 5 4 6 6 6 8 7 9
2 2 3 2 2 2 3 5 7 7 7 5 5 5 4 3 2 1 2 3 4 3 3 4 3 2 2 2 3 1 2 3 5 6 4 2 2 2 2 3 3 3 3 4 4 5 6 9 12 10 8 8 11 10 8 4 5 4 3 3 3 3 2 1 2 2 1 2 2 2 3 5 4 3 3 7 5 7 6 6 6 7 8 8 9
6 5 4 2 2 2 2 3 5 6 6 5 5 5 4 3 3 2 1 2 3 2 2 2 3 3 2 2 2 1 1 2 4 5 4 1 5 1 2 2 3 4 3 4 5 5 6 7 8 10 11 13 13 13 12 10 6 4 2 2 2 3 3 2 2 1 0 1 1 1 2 2 2 3 4 4 5 6 6 6 6 7 8 8 8
7 7 6 6 4 5 4 4 5 5 5 6 5 4 4 4 4 3 3 1 2 2 2 2 2 2 2 1 1 1 1 1 2 5 4 2 1 3 0 1 3 4 4 4 4 5 5 6 6 8 11 12 12 13 12 12 9 6 5 5 4 3 1 1 2 2 1 1 2 3 3 3 4 4 5 5 5 5 6 6 6 7 7 9 10
6 6 6 6 6 5 6 5 4 3 4 4 5 4 2 3 4 3 3 3 3 3 3 2 3 2 2 1 1 1 2 1 1 3 3 1 3 3 2 2 3 5 4 4 4 4 5 5 5 6 10 11 11 12 12 11 9 7 6 6 5 3 2 2 1 1 2 2 3 4 5 5 5 5 5 6 6 5 5 6 7 7 7 9 11
6 6 5 6 6 7 6 6 5 3 4 6 6 6 4 4 4 4 5 5 5 5 4 4 4 3 3 2 2 1 1 2 4 1 3 0 2 2 1 2 1 3 5 5 5 6 6 6 6 7 10 11 12 11 11 11 10 8 8 7 6 2 2 1 2 3 3 4 5 5 5 5 5 5 5 6 5 5 6 6 8 9 11 11 12
7 6 5 5 5 6 7 7 6 5 6 6 6 6 6 5 5 5 6 6 6 5 4 4 4 4 4 3 2 2 1 1 4 4 2 3 4 4 5 6 3 1 3 5 5 6 6 6 7 10 12 13 13 13 13 11 8 9 8 6 3 2 2 2 3 3 4 5 5 5 5 5 6 6 6 6 6 8 8 10 11 11 11 11 12
8 8 7 7 6 5 5 6 6 6 6 6 7 6 6 6 6 5 5 5 6 6 5 5 5 5 4 3 3 2 2 1 1 4 5 5 5 5 7 8 7 7 6 6 6 6 10 13 12 12 12 12 13 12 11 10 9 8 6 2 1 2 3 3 3 4 4 4 5 5 6 5 5 6 8 10 11 10 10 9 8 9 9 10 10
9 9 8 7 7 6 6 6 6 6 5 5 6 6 7 7 7 6 5 5 6 6 5 4 4 4 4 3 3 2 2 2 2 3 4 5 6 7 8 8 9 10 11 10 13 14 14 13 13 11 9 6 5 6 6 6 7 6 4 2 3 3 4 4 4 4 5 5 5 6 6 6 6 7 9 8 8 8 8 8 8 8 8 8 9
8 8 8 8 6 5 6 6 5 5 5 4 4 4 4 5 5 5 5 5 5 4 4 4 4 4 5 4 3 3 3 3 3 4 4 5 5 7 8 8 11 13 10 9 10 9 9 7 8 10 9 10 9 7 7 4 3 2 3 3 3 3 3 5 4 4 5 6 6 6 7 7 7 7 7 7 7 7 7 8 8 8 8 8 9
8 9 9 8 7 6 5 5 6 5 4 5 5 4 3 3 5 5 6 6 5 5 4 4 5 5 5 4 3 3 4 4 5 5 5 6 6 6 7 7 7 6 8 7 7 8 9 10 9 6 6 5 4 3 3 3 3 2 3 3 3 3 1 4 5 5 5 5 6 6 6 7 7 7 7 7 7 7 7 8 8 9 9 9 9
8 9 9 8 7 6 5 5 4 4 2 2 1 2 0 2 2 1 2 1 2 4 5 5 5 4 5 4 4 4 3 5 7 7 7 8 6 8 7 7 6 6 8 11 10 8 7 6 4 4 3 2 2 2 3 3 2 2 3 4 3 3 5 6 6 5 5 6 6 6 6 7 7 7 7 8 8 8 8 8 9 9 9 9 10
9 8 7 7 7 6 5 4 3 3 2 1 1 1 1 1 2 2 1 2 2 4 4 3 1 1 3 4 4 5 5 3 8 11 9 8 6 7 7 8 8 10 12 11 9 7 4 4 3 2 2 2 2 2 2 2 2 2 2 2 2 3 4 5 5 5 5 5 6 6 6 7 7 8 8 8 8 8 8 8 9 9 9 9 10
8 8 7 7 6 5 5 4 3 2 2 1 1 2 3 3 5 3 1 1 0 1 3 5 6 5 4 4 3 2 4 7 10 11 11 9 8 10 12 12 14 15 13 8 5 5 5 4 3 2 2 2 2 2 2 2 3 2 3 2 2 2 2 4 6 4 4 5 5 6 6 7 7 7 7 7 8 9 8 7 8 8 9 9 10
8 8 7 6 4 4 4 4 3 3 2 3 3 3 3 4 3 6 5 3 2 4 5 5 6 7 8 8 5 2 5 7 10 12 12 11 11 12 14 15 15 14 9 6 5 4 3 3 3 2 2 2 2 1 1 2 2 2 3 3 3 3 3 4 4 5 4 5 6 6 7 7 7 8 8 8 8 8 8 8 8 8 8 9 10
9 10 8 6 4 2 3 2 2 2 3 3 2 2 3 4 5 4 4 6 4 2 2 5 7 9 10 10 10 8 5 9 12 13 13 13 14 14 15 15 13 11 9 6 4 4 3 3 3 2 2 2 1 1 2 3 2 2 2 3 3 3 3 3 3 5 5 5 6 7 7 7 8 8 8 8 8 8 8 8 8 8 8 9 9
9 8 7 5 3 2 2 2 2 1 1 1 1 2 2 3 4 4 4 3 3 5 7 5 1 3 8 10 10 10 9 12 14 15 14 15 15 16 15 10 9 6 5 5 5 4 4 3 3 4 3 2 1 1 2 2 2 2 2 3 4 4 4 4 5 5 5 5 6 6 7 7 7 8 8 8 8 8 8 8 8 8 8 9 9
7 6 7 6 3 2 2 2 2 2 2 2 3 3 4 4 4 4 4 4 4 4 4 3 5 4 3 5 10 11 11 13 15 16 16 17 17 16 14 9 6 4 5 6 6 5 4 4 4 3 3 2 1 1 1 2 2 2 2 3 3 3 3 3 3 4 6 5 6 6 7 8 8 8 8 9 9 9 9 8 8 8 9 9 10
6 5 3 3 1 1 1 0 0 1 2 2 2 3 3 5 5 6 6 6 6 5 4 2 1 5 1 3 7 11 13 15 15 16 17 17 17 17 10 8 7 5 5 6 6 5 4 4 5 4 3 2 1 1 1 1 2 2 4 3 3 3 3 3 3 4 5 6 6 7 7 8 8 8 8 8 9 9 9 8 9 9 9 9 9
5 4 2 1 2 1 0 0 1 1 2 2 3 4 5 5 6 6 6 6 5 6 6 4 2 3 4 4 6 9 12 14 15 16 17 18 18 9 5 7 6 6 6 5 5 6 4 4 4 4 3 2 1 1 1 2 2 3 3 2 3 3 3 4 4 4 4 7 7 7 7 8 8 8 8 9 9 9 9 9 9 9 9 10 10
4 4 3 2 2 1 0 1 2 2 3 3 4 6 6 6 6 6 6 5 4 4 4 5 4 3 3 5 8 8 12 14 16 13 11 8 3 2 4 4 6 6 6 5 5 4 4 3 4 3 3 2 2 2 1 2 2 2 3 3 3 3 5 5 2 3 4 6 7 8 8 8 8 8 8 9 9 9 9 9 9 9 10 10 9
4 4 2 2 1 2 2 3 4 4 5 6 6 6 7 6 6 6 5 5 5 5 4 5 5 5 6 8 8 10 13 10 8 8 5 3 2 3 4 5 5 5 5 5 5 5 4 3 3 2 1 1 1 1 1 2 2 2 3 3 3 3 4 4 4 4 5 7 7 8 8 8 8 8 8 9 9 9 10 10 9 9 9 9 9
3 3 2 2 2 3 4 3 4 5 6 6 7 7 6 6 6 5 5 5 5 5 4 4 4 4 5 7 8 10 9 8 7 6 5 5 4 4 4 5 5 6 6 5 4 4 4 3 2 2 1 1 1 1 1 2 2 2 2 3 4 4 4 4 4 5 7 7 8 8 8 9 9 9 8 8 9 9 10 10 10 9 9 9 9
3 2 3 2 4 2 4 4 3 3 4 5 5 5 5 5 5 4 5 5 5 5 5 6 6 5 5 5 5 7 7 6 5 4 4 5 5 5 5 5 5 5 4 4 4 3 3 2 2 2 1 1 0 0 1 2 2 2 3 3 3 3 4 3 4 5 7 8 8 8 8 9 9 9 9 9 10 10 9 9 9 9 9 8 9
3 3 4 2 3 4 3 2 2 2 3 1 2 2 2 3 4 4 5 5 5 7 8 7 6 5 6 10 9 10 8 6 5 5 5 5 5 4 4 4 4 4 4 4 3 3 3 2 2 1 1 0 1 2 2 2 2 2 3 3 3 3 4 4 5 7 7 7 8 8 9 9 9 9 10 10 9 8 9 9 9 9 8 8 8
5 4 3 2 2 3 2 2 3 4 3 4 4 5 5 6 6 5 5 6 6 6 8 7 6 5 5 7 10 9 6 6 6 5 4 4 4 4 4 5 4 4 4 3 2 2 2 2 2 1 1 1 1 2 2 2 2 2 2 2 3 4 4 5 6 6 7 8 8 9 10 9 9 9 9 9 9 9 9 9 9 9 9 8 8
5 4 4 3 3 3 3 3 3 3 3 4 5 5 5 6 6 7 7 6 7 7 6 5 5 5 5 5 6 6 6 5 5 5 5 4 5 5 5 5 5 4 4 3 2 1 1 2 1 2 1 1 1 2 2 2 2 3 3 3 3 4 5 6 6 7 7 8 9 9 9 9 9 9 9 9 9 9 9 9 9 9 8 8 8
6 5 5 4 3 3 4 3 3 3 3 4 5 5 4 6 7 7 6 6 4 5 5 4 4 4 5 4 4 5 5 6 5 5 5 6 5 5 5 5 5 4 4 3 2 2 2 2 2 1 1 1 2 2 2 3 3 3 3 3 4 4 5 6 7 8 8 8 8 9 9 9 9 9 9 9 9 9 9 9 9 9 9 8 8
6 5 5 4 5 4 4 4 3 4 4 5 5 6 6 6 6 6 4 5 4 5 4 4 4 3 3 4 5 7 5 6 5 6 7 6 6 5 5 4 4 3 3 3 2 2 3 2 2 2 2 2 2 2 2 3 3 3 3 3 4 4 5 7 8 9 9 8 8 8 9 9 9 9 10 10 9 9 9 9 9 8 8 8 8
6 5 4 4 4 5 4 4 3 3 3 4 4 5 4 6 6 6 6 6 5 5 5 4 4 4 5 5 6 5 6 6 6 6 6 6 5 5 4 4 4 4 4 3 3 2 2 2 3 3 3 3 2 3 3 3 3 3 3 3 4 5 6 8 9 9 9 9 9 8 8 8 9 9 9 9 9 9 9 9 9 9 9 8 7
5 5 4 4 5 5 5 5 5 6 6 5 4 4 5 5 5 6 6 6 5 5 5 6 6 6 6 6 6 6 6 6 6 6 6 6 5 5 4 4 4 4 4 3 3 2 2 3 3 3 3 3 3 3 3 3 3 4 4 4 4 7 10 12 9 9 8 9 9 9 9 8 8 8 9 9 9 9 9 9 9 8 8 8 7
5 5 5 5 5 5 5 5 4 4 4 5 5 5 5 6 6 5 6 6 6 6 6 7 8 8 7 6 6 7 7 7 7 6 6 6 5 5 4 5 5 4 3 3 3 3 3 3 3 3 3 2 3 3 3 4 4 4 5 5 7 13 14 14 11 9 11 10 8 8 8 8 8 9 9 9 9 9 8 9 8 8 8 7 7
6 6 5 5 5 5 5 5 5 5 5 5 5 6 6 6 6 6 7 7 7 7 7 7 8 8 7 6 7 7 7 7 6 6 5 5 5 4 4 5 4 4 3 3 2 2 2 2 2 3 3 3 3 3 3 4 4 5 6 8 12 14 14 15 12 12 11 8 8 7 7 8 8 8 8 8 8 8 9 8 8 7 7 8 7
6 6 5 5 5 5 5 5 5 5 5 5 5 5 6 6 6 6 7 7 7 7 7 7 8 8 7 6 7 7 7 7 6 6 5 5 4 4 4 4 3 3 3 2 2 2 2 2 2 2 2 3 3 3 3 4 5 7 9 12 13 15 16 15 11 14 15 12 7 6 5 6 7 7 7 8 8 8 8 9 8 8 7 7 7
Wind_Direction
157 166 164 169 167 177 181 184 157 146 144 152 159 155 142 141 142 137 137 132 133 143 139 128 119 109 100 95 106 118 121 121 125 131 116 90 67 41 105 174 177 141 151 152 159 186 131 123 126 103 336 113 115 124 109 101 95 84 85 87 90 89 101 109 114 119 120 93 92 92 72 22 72 49 64 66 53 66 68 58 48 46 47 49 84
159 158 176 173 176 172 172 167 156 151 150 151 153 155 155 152 148 148 140 142 161 146 139 133 131 127 116 112 106 96 109 113 119 112 115 123 115 106 341 312 284 216 188 195 165 171 186 178 145 144 175 127 141 140 134 138 124 115 106 104 106 109 105 108 109 123 131 161 139 135 111 16 90 63 67 57 60 41 58 60 52 43 38 25 38
157 160 167 174 172 166 158 160 160 156 152 151 157 162 159 152 157 150 146 145 157 156 149 145 129 122 120 126 128 121 114 113 94 73 76 76 89 126 163 191 248 266 266 257 225 178 196 199 182 168 171 165 160 140 155 157 139 119 116 107 112 118 127 120 125 123 137 126 147 135 112 79 50 62 62 73 57 40 67 65 50 48 40 26 23
164 165 165 167 164 159 166 163 161 158 157 157 158 165 165 163 164 154 150 155 161 165 157 146 128 123 127 128 124 130 140 164 142 119 273 295 248 259 256 254 237 244 267 282 275 239 236 218 203 187 184 183 173 172 181 174 171 144 145 134 136 134 129 148 118 120 137 135 163 144 126 135 126 77 74 87 60 44 32 61 61 52 34 28 25
166 167 162 156 157 156 152 150 146 152 158 164 165 167 168 159 151 140 145 154 155 153 147 137 141 149 137 146 149 164 173 173 221 265 255 214 256 249 246 265 278 271 257 254 256 259 249 239 230 203 200 208 182 197 183 185 188 176 171 161 154 145 151 158 137 133 133 127 136 138 154 125 92 73 27 12 96 76 57 38 30 21 25 12 1
155 158 163 161 161 159 150 127 114 149 192 182 174 169 163 163 149 142 149 149 154 172 155 160 164 165 146 157 181 180 160 218 262 278 284 269 240 222 217 229 244 265 272 265 258 245 243 240 225 207 208 219 211 203 198 199 191 195 179 182 160 162 162 156 165 143 131 128 141 147 181 158 158 88 42 30 22 14 11 11 199 16 5 0 358
139 147 156 162 160 151 135 140 165 173 182 190 170 163 166 160 153 146 153 161 167 167 161 152 168 150 142 162 185 185 181 176 205 258 271 267 265 257 235 227 228 233 244 250 248 248 248 247 240 223 220 223 220 211 201 201 191 195 184 179 183 171 161 149 186 154 136 137 131 130 145 143 21 116 101 20 102 40 14 353 345 7 351 345 339
125 128 137 139 141 118 121 136 151 166 173 166 156 160 157 158 146 135 145 154 153 158 162 183 172 158 144 154 145 153 155 173 228 245 256 262 261 257 253 245 249 249 254 253 245 241 240 241 242 238 233 229 231 224 206 205 197 203 188 180 166 164 160 165 208 188 154 151 151 150 143 140 153 136 174 221 224 161 38 351 335 336 337 329 300
119 117 125 133 127 124 131 139 157 169 164 161 166 162 153 141 136 139 150 164 167 147 164 185 176 141 116 126 138 140 157 166 235 270 269 270 268 266 253 248 256 273 272 268 257 253 249 247 246 245 234 237 240 238 222 212 205 210 185 175 170 180 176 186 198 198 180 170 152 151 164 157 95 27 14 8 4 350 347 332 321 330 326 323 325
133 126 130 129 125 129 134 145 164 168 160 177 170 153 151 150 152 156 163 167 138 126 137 150 155 150 141 126 123 115 98 145 84 338 307 294 285 285 288 284 279 274 276 272 264 252 347 285 258 243 237 232 237 261 275 245 240 259 183 178 186 191 188 194 201 210 211 217 174 158 231 167 87 38 334 46 337 282 289 318 323 330 320 320 319
149 162 157 134 134 132 144 157 168 189 172 170 147 144 147 149 154 153 145 141 137 138 141 142 142 138 147 140 118 102 89 69 52 57 193 246 260 268 275 282 277 271 269 275 280 255 249 257 276 269 245 229 213 226 228 228 230 251 278 221 199 187 186 197 204 219 231 238 127 156 129 267 164 235 275 320 217 308 321 310 314 323 330 331 322
109 100 85 116 139 142 142 150 171 187 206 138 120 114 121 136 141 144 153 158 151 150 148 146 147 141 124 93 95 101 102 61 54 66 42 263 243 246 259 272 275 276 279 280 291 291 292 290 291 286 256 243 190 225 216 217 215 211 194 190 179 15 19 165 158 161 183 172 164 155 175 250 217 228 241 282 325 306 292 303 309 322 319 313 306
87 84 82 106 108 100 136 163 161 164 154 118 127 133 138 145 152 157 154 145 138 131 117 117 114 106 106 106 90 81 84 48 40 51 60 11 314 254 237 257 271 276 288 296 306 314 312 300 302 311 327 126 207 207 202 166 168 153 133 110 92 95 91 63 34 3 191 220 191 175 217 224 246 174 52 21 346 303 309 308 319 312 307 298 300
42 47 58 62 73 98 107 110 105 92 102 116 127 127 128 114 113 103 111 123 121 114 117 115 117 117 111 107 114 122 127 121 228 131 118 117 157 218 92 307 311 314 318 322 317 316 315 309 311 314 333 334 348 182 177 162 151 147 151 144 111 84 67 68 73 49 27 22 249 262 120 47 359 90 117 134 306 308 310 305 311 304 300 298 304
49 44 43 35 48 70 83 83 84 77 73 74 79 80 80 84 82 84 100 107 118 119 119 120 109 124 131 134 117 104 90 91 32 88 107 114 137 161 71 65 42 17 358 342 327 321 320 312 303 318 339 333 13 345 174 159 155 149 139 119 104 84 69 53 36 40 53 43 46 56 84 82 77 108 137 247 284 290 295 297 299 294 290 284 273
66 60 55 55 47 31 55 77 72 71 74 79 86 87 80 83 101 94 92 85 74 87 77 77 101 99 93 128 132 117 114 111 79 97 109 123 141 93 86 82 77 69 58 38 19 11 4 357 1 39 29 28 55 28 27 153 151 143 126 112 105 93 73 55 42 42 44 54 63 70 81 56 27 26 14 331 270 259 259 256 259 259 274 289 291
82 79 90 90 98 96 82 70 58 52 65 92 98 105 113 112 108 129 120 123 121 112 101 94 90 94 100 91 96 110 108 37 25 80 124 156 165 108 117 107 91 83 58 39 41 40 31 23 55 67 66 59 44 69 62 144 138 127 121 116 113 113 101 79 45 43 50 62 63 65 72 84 87 55 48 314 309 316 286 279 282 299 299 294 293
90 102 106 123 119 131 140 138 138 134 136 136 136 139 143 151 153 176 153 147 139 134 139 127 114 93 89 86 50 63 82 41 6 19 106 194 240 110 107 100 98 92 89 61 60 64 50 31 24 86 84 79 70 80 75 140 127 125 130 133 130 110 97 78 81 59 58 63 61 63 73 60 46 284 261 245 221 246 274 291 312 306 292 291 292
194 204 199 207 174 157 164 155 150 152 155 161 159 151 153 142 125 150 129 132 128 143 147 134 127 113 84 78 65 32 71 72 41 13 21 186 236 119 117 111 110 99 104 92 80 85 79 57 44 55 77 85 76 70 57 75 107 99 103 114 116 113 93 125 112 114 147 191 185 183 183 195 214 236 183 185 220 232 248 274 291 287 289 291 293
336 333 328 317 262 260 232 190 168 165 162 160 167 160 149 148 156 151 123 138 141 136 140 127 127 107 99 97 102 54 48 65 51 22 1 316 292 302 127 123 122 124 117 118 110 96 93 87 71 67 76 74 73 68 58 50 84 92 97 105 118 108 118 115 69 19 143 310 302 272 287 287 265 248 259 235 218 229 252 264 273 277 282 284 284
326 320 311 299 274 236 227 234 192 180 172 170 169 164 168 158 149 147 142 119 103 106 102 105 99 96 83 80 109 95 36 5 65 30 23 311 226 278 164 109 132 140 136 135 129 123 109 90 90 62 69 70 71 70 66 52 44 62 53 68 58 69 75 123 96 285 289 263 267 276 276 275 275 272 270 265 269 270 269 266 266 267 272 282 287
323 307 296 288 281 259 227 230 249 203 176 161 165 177 167 155 160 146 126 135 140 142 152 151 150 135 140 153 146 135 100 38 338 81 31 340 242 278 288 163 161 147 145 136 130 119 107 104 96 82 85 84 80 77 74 71 66 76 71 79 80 76 97 106 153 243 279 289 300 294 288 286 285 286 280 278 277 274 276 277 271 268 270 274 280
325 315 304 290 271 263 253 228 224 234 184 179 181 178 174 176 170 165 158 162 166 165 171 170 171 166 163 163 150 138 112 121 28 12 82 248 192 205 252 181 216 207 160 150 134 122 114 110 103 92 90 90 88 85 86 89 81 80 90 83 77 103 234 31 345 306 310 302 294 289 287 284 288 292 290 292 293 292 290 290 291 287 284 281 277
325 317 305 291 280 266 254 242 224 221 212 191 197 181 176 182 176 177 177 174 173 172 174 174 183 186 190 177 170 159 145 141 93 36 73 119 156 162 145 131 162 208 132 130 124 120 127 113 108 105 95 90 84 79 73 71 86 85 82 88 100 43 358 333 313 318 298 290 289 294 295 299 295 294 305 310 306 304 298 296 294 290 287 286 284
322 318 315 312 298 281 264 249 239 223 210 198 197 193 177 175 179 179 181 185 183 185 177 179 193 199 196 199 178 162 152 125 118 77 70 87 106 121 121 118 112 115 110 106 104 92 92 104 110 104 102 101 105 102 89 81 82 82 76 67 277 16 4 346 330 321 307 303 304 303 301 304 308 303 305 307 306 301 295 295 294 292 290 287 285
316 313 311 305 303 300 281 258 235 229 227 224 218 201 186 184 193 175 188 188 190 197 183 184 196 199 209 208 186 171 149 168 147 125 129 116 102 93 103 105 95 76 81 91 96 106 109 110 112 115 111 113 109 85 83 88 95 101 98 10 25 17 360 348 335 323 318 317 314 308 311 315 312 317 312 303 298 299 303 300 301 297 294 293 293
304 302 302 303 300 294 281 269 246 212 208 215 226 225 213 195 192 179 189 188 191 195 186 184 198 206 224 214 173 162 180 182 173 159 161 150 139 131 120 107 110 110 109 119 120 118 118 113 93 86 92 85 92 103 104 136 135 96 39 26 22 11 5 4 354 334 329 325 320 316 317 316 313 308 306 308 301 300 302 298 293 293 296 296 295
301 298 297 296 292 287 279 269 265 242 208 199 195 193 202 209 201 194 193 193 193 196 197 200 211 218 230 219 180 187 192 195 189 182 172 166 158 156 145 148 153 147 133 132 126 118 116 120 127 130 131 129 124 98 74 63 59 39 17 11 16 34 12 206 243 337 329 322 311 309 307 307 304 305 305 301 299 299 300 297 295 295 297 297 293
295 286 288 288 283 276 270 269 251 253 221 215 11 3 303 198 229 221 11 333 262 232 216 218 222 228 243 235 213 211 208 210 211 187 177 172 163 159 161 162 153 143 127 125 124 132 133 128 120 122 111 103 93 77 59 46 35 36 33 10 6 4 354 355 348 340 333 321 315 310 305 303 302 302 299 298 300 302 301 297 295 296 296 293 288
299 287 281 281 281 277 267 250 233 222 229 190 211 179 70 351 308 270 168 106 359 353 351 272 304 259 243 249 243 249 239 241 127 149 156 167 173 149 126 121 120 122 131 138 136 136 135 130 123 116 112 93 82 69 51 35 24 16 20 11 342 1 351 348 347 339 328 315 310 307 305 304 301 302 301 300 302 302 302 298 298 298 294 291 289
291 284 278 271 273 284 277 259 217 189 188 198 191 224 229 176 191 221 271 169 196 278 282 282 299 292 276 262 213 165 48 96 149 164 156 160 145 129 125 123 124 130 137 130 133 135 138 131 119 108 99 88 72 66 44 34 22 7 5 351 348 340 333 340 347 335 326 324 320 314 308 304 302 302 301 300 301 304 305 303 298 294 290 288 287
288 282 280 279 267 245 249 239 222 201 189 173 207 225 230 257 233 176 186 186 187 213 236 247 257 250 251 251 267 202 162 160 160 167 165 154 145 139 134 134 137 141 150 137 132 138 138 131 126 111 107 96 88 77 56 35 25 4 353 346 345 344 326 336 341 324 327 328 329 324 318 312 306 302 300 300 298 295 296 299 298 295 291 288 284
287 281 275 274 260 216 216 198 195 199 200 197 199 196 229 240 252 253 169 174 189 195 187 210 224 239 237 233 230 242 204 171 167 163 158 151 145 143 138 138 138 139 135 139 138 134 130 124 121 121 113 104 98 71 51 40 19 359 351 343 336 335 325 330 292 327 335 336 323 322 319 312 307 303 299 296 294 296 298 296 295 292 290 288 287
287 278 273 268 242 201 185 188 181 187 194 236 231 231 223 240 253 260 272 262 215 196 187 176 165 236 233 230 221 215 185 166 165 160 153 148 143 138 134 130 131 158 158 141 138 138 135 133 126 119 109 105 99 76 50 28 8 351 344 337 332 332 331 324 335 342 335 335 324 325 322 318 312 306 303 300 297 298 297 297 298 297 296 293 293
289 263 255 275 256 216 176 173 176 175 186 207 218 220 225 228 240 248 252 256 259 264 263 179 128 61 307 226 209 197 177 166 161 157 150 146 141 134 120 121 127 133 143 144 138 140 139 134 128 128 134 117 88 59 42 13 359 347 342 333 333 337 329 333 330 338 332 327 327 325 323 314 311 308 306 305 306 305 304 304 304 301 298 297 294
282 269 229 210 254 277 286 324 130 248 261 254 249 249 254 249 235 237 241 249 259 266 261 270 337 51 35 247 179 176 165 157 152 146 144 139 138 138 141 150 147 148 142 141 137 129 123 122 128 131 125 112 89 56 26 2 347 340 347 338 335 333 332 332 323 326 329 336 335 326 318 317 316 312 308 305 303 304 306 304 301 300 296 295 296
288 273 247 230 230 238 258 316 279 314 298 286 271 257 255 248 243 243 242 242 244 247 257 250 210 116 86 97 124 130 133 135 135 137 138 144 154 156 147 148 147 142 139 135 135 130 129 133 133 125 112 95 68 38 12 349 336 331 336 330 333 322 337 328 321 325 328 342 332 323 314 312 314 313 312 307 305 306 307 306 304 302 301 296 293
271 259 242 205 194 208 12 335 4 350 288 280 276 273 264 255 244 237 235 235 219 219 226 223 214 199 135 134 130 127 118 113 112 110 117 129 143 128 121 126 138 139 136 134 135 136 134 138 133 115 97 79 50 15 352 333 336 337 343 335 327 333 300 295 302 320 317 329 329 324 318 316 316 317 316 312 310 308 309 308 306 305 302 297 295
253 245 225 200 351 32 4 334 318 299 290 282 277 269 261 250 237 225 217 212 204 210 209 190 175 161 144 148 135 127 126 132 136 138 129 115 111 121 128 130 132 128 126 128 134 140 137 130 117 110 95 62 34 2 334 337 335 340 337 332 334 332 335 343 342 333 324 333 327 326 323 322 322 319 316 313 310 308 305 303 300 297 296 296 296
232 188 164 197 123 60 27 355 318 287 281 279 274 266 255 241 226 212 195 183 180 173 157 133 134 113 124 152 152 148 137 132 131 134 128 129 129 130 131 131 131 131 135 139 138 134 133 128 120 110 91 61 27 348 328 327 339 340 338 343 337 336 344 348 342 329 332 329 322 323 325 325 324 320 316 312 310 309 305 303 300 296 293 295 297
197 151 130 110 58 60 36 357 327 320 300 288 273 255 243 222 200 178 160 140 124 112 107 106 103 104 121 128 114 120 115 112 115 122 125 128 129 125 125 125 129 127 131 133 134 134 127 122 110 91 71 53 10 323 335 339 343 344 350 339 334 341 344 346 330 330 327 320 321 322 324 324 322 321 317 315 309 303 303 300 300 301 303 302 304
169 153 146 121 62 34 24 354 340 7 1 16 54 95 113 111 102 96 107 110 114 118 115 106 102 96 92 100 100 108 101 98 106 109 109 110 112 111 110 113 120 127 129 130 130 130 124 113 98 73 55 40 359 349 342 353 352 350 352 347 344 346 344 336 333 329 320 317 318 320 320 318 313 309 306 307 309 310 306 305 304 304 307 309 309
136 129 126 103 41 28 52 73 37 31 24 52 63 62 71 81 90 92 95 101 108 114 115 101 97 89 91 104 114 107 96 107 118 112 107 103 101 103 110 114 111 105 105 106 107 107 105 91 78 75 64 46 4 353 348 357 360 352 359 358 352 349 335 330 329 324 321 314 311 311 310 311 314 317 315 314 311 310 307 306 307 313 317 316 316
114 110 100 89 97 111 116 109 75 63 49 41 51 62 69 78 88 95 95 98 111 110 101 96 100 100 106 111 118 110 111 114 112 107 107 104 107 112 111 106 105 108 107 106 102 84 87 88 89 85 82 58 29 5 351 13 10 12 359 354 352 341 331 329 322 320 318 313 308 306 307 310 311 313 315 316 317 314 311 311 312 315 316 317 319
102 100 105 101 80 93 113 115 105 87 83 78 73 66 67 79 93 98 95 99 92 86 86 88 88 108 121 121 109 103 100 98 103 108 108 110 108 106 106 109 110 108 106 96 84 81 85 87 91 82 53 50 29 21 24 31 28 20 11 349 342 338 333 324 317 313 307 303 302 304 307 312 313 312 315 319 319 317 316 316 316 316 318 319 323
95 99 96 95 100 97 111 115 107 109 98 93 91 84 78 77 74 75 68 78 80 83 84 81 81 83 94 95 97 98 106 112 109 106 108 108 109 109 109 108 102 102 98 94 84 59 51 48 55 58 44 36 28 17 24 29 25 19 357 347 336 331 326 320 317 311 306 301 300 301 301 302 304 306 305 311 319 319 316 314 315 320 320 319 323
98 89 81 78 75 77 72 76 85 86 80 75 75 82 88 88 87 81 68 69 78 82 85 93 98 92 86 89 94 99 101 103 105 102 96 95 99 104 106 105 105 100 91 79 68 77 75 54 53 54 46 31 32 28 21 19 13 3 354 345 346 338 335 327 316 306 303 303 299 295 296 296 297 305 313 319 322 323 322 319 322 322 323 327 330
92 94 86 80 82 84 85 89 97 104 105 93 83 87 88 89 87 85 98 97 89 90 93 92 91 91 91 91 93 95 95 95 96 100 102 105 101 95 93 95 93 89 87 83 76 59 51 55 53 48 44 36 27 26 24 14 9 357 347 343 346 342 328 324 314 307 306 307 299 291 290 291 296 304 314 320 321 325 325 327 327 330 332 335 339
83 82 77 75 78 85 90 91 83 76 79 88 86 81 75 77 78 84 89 91 94 97 99 105 109 114 111 97 95 96 97 101 106 108 106 106 100 91 83 71 69 66 71 79 72 57 56 53 47 46 38 32 30 23 20 16 2 356 346 341 339 335 332 329 321 313 312 305 297 294 288 287 293 303 319 326 328 329 329 328 331 332 335 342 343
80 80 81 76 74 72 75 79 82 83 80 82 82 83 82 83 89 92 93 95 96 96 100 104 109 113 115 107 102 101 108 109 105 105 104 105 100 88 80 81 75 72 72 67 56 54 50 52 46 47 37 36 27 21 13 14 6 354 347 338 335 335 335 332 324 321 324 315 303 291 290 293 303 313 330 338 337 334 335 337 336 337 341 344 350
82 79 73 66 71 72 77 79 76 75 77 82 85 88 96 98 95 95 96 95 96 98 101 104 106 108 100 98 103 108 107 103 100 94 90 87 91 87 80 76 72 66 65 63 57 51 44 35 34 37 34 30 22 14 7 359 360 351 339 338 339 339 338 338 333 330 329 323 303 290 299 310 309 314 339 350 346 345 341 336 343 346 347 351 354